Temperature
18 18 19 18 18 18 18 18 18 18 18 18 18 18 18 18 18 18 18 18 18 18 18 18 18 18 18 18 19 19 19 19 19 19 19 18 18 18 18 18 18 18 18
18 18 18 18 18 18 18 18 18 18 18 18 18 18 18 18 18 18 18 18 18 18 18 18 18 18 18 18 18 19 19 19 19 18 18 18 18 18 18 18 18 18 18
18 18 18 18 18 18 18 18 18 18 18 18 18 18 18 18 18 18 18 18 18 18 18 18 18 18 18 18 18 19 19 19 19 18 18 18 18 18 18 18 18 18 18
18 18 18 18 18 18 18 18 18 18 18 17 17 17 17 17 17 17 17 18 17 18 18 18 18 18 18 18 18 18 19 19 18 18 18 18 18 18 18 18 18 18 18
18 18 18 18 18 18 18 18 18 17 17 17 17 17 17 17 17 17 17 17 17 17 17 17 18 18 18 18 18 18 18 18 18 18 18 18 18 18 18 18 18 18 18
18 18 18 18 18 18 18 17 17 17 17 17 17 17 17 17 17 17 17 17 17 17 17 17 17 17 17 18 18 18 18 18 18 18 17 17 18 18 18 18 18 18 18
18 18 18 18 18 18 17 17 17 17 16 16 16 17 17 17 17 17 17 17 17 17 17 17 17 17 17 18 18 18 18 18 18 18 18 18 18 18 18 18 18 18 18
19 19 19 18 18 18 17 17 17 17 16 16 16 16 16 17 16 16 16 16 16 16 16 16 17 17 17 17 17 18 18 18 18 18 18 18 18 18 18 18 18 18 18
19 19 18 18 18 18 17 17 17 17 16 16 16 16 16 16 16 16 16 16 16 16 16 16 16 17 17 17 17 18 18 18 18 18 18 18 18 18 18 18 18 18 18
20 19 19 18 18 18 18 17 17 17 16 16 16 16 16 16 16 16 16 16 16 16 16 16 16 16 17 17 17 17 18 18 18 18 17 17 18 18 18 18 18 18 18
20 20 19 19 18 18 18 18 17 17 17 16 16 16 16 16 16 16 16 16 16 16 16 16 16 16 16 17 17 17 17 18 18 17 17 17 18 18 18 18 18 18 18
20 20 20 20 19 19 19 18 17 17 17 17 16 16 16 16 16 16 16 16 16 16 16 16 16 16 16 17 17 17 17 17 17 17 17 17 18 18 18 18 18 18 18
21 20 20 20 20 19 19 18 18 17 17 17 17 16 16 16 16 16 16 16 16 16 16 15 16 16 16 16 17 17 17 17 17 17 17 17 17 18 18 18 18 18 18
21 20 20 20 20 19 19 18 18 18 17 17 17 16 16 16 16 16 16 16 16 16 16 15 16 16 16 16 17 17 17 17 17 17 17 17 17 18 18 18 18 18 18
21 20 20 20 20 19 19 19 18 18 18 17 17 16 16 16 16 16 16 16 16 15 15 15 16 16 16 16 16 17 17 17 17 17 17 17 17 17 17 18 18 18 18
21 21 20 20 20 19 19 19 18 18 18 17 17 16 16 16 16 16 15 15 15 15 15 15 15 15 16 16 16 16 16 17 17 17 17 17 17 17 17 17 17 17 18
22 21 20 20 19 19 19 18 18 18 17 17 16 16 16 16 16 15 15 15 15 15 15 15 15 15 15 15 16 16 16 16 16 16 17 17 17 17 17 17 17 17 17
22 21 20 20 19 19 18 18 18 17 17 16 16 16 16 16 15 15 15 15 15 15 15 15 15 15 15 15 16 16 16 16 16 16 16 16 17 17 17 17 17 17 17
22 21 21 20 19 19 18 18 17 17 17 16 16 15 15 15 15 15 15 15 15 14 14 14 14 15 15 15 15 16 16 16 16 16 16 16 16 16 17 17 17 17 17
22 21 21 20 19 19 18 18 17 17 17 16 16 15 15 15 14 15 14 14 14 14 14 14 14 14 15 15 15 15 15 16 16 16 16 16 16 16 16 16 17 17 17
22 21 21 20 19 19 18 18 17 17 17 16 16 15 15 15 14 14 14 14 14 14 14 14 14 14 15 15 15 15 15 16 16 16 16 16 16 16 16 16 16 17 17
22 21 21 20 20 19 18 18 17 17 17 16 16 15 15 15 14 14 14 14 14 14 14 14 14 14 14 15 15 15 15 16 16 16 16 16 16 16 16 16 16 16 16
22 21 21 20 20 19 18 18 17 17 17 16 16 16 15 15 14 14 14 14 14 14 14 14 14 14 14 14 14 15 15 15 15 15 15 16 16 16 16 16 16 16 16
21 21 21 20 20 19 19 18 17 17 17 16 16 16 15 15 15 14 14 14 14 14 14 14 14 14 14 14 14 15 15 15 15 15 15 15 16 16 16 16 16 16 16
21 21 20 20 20 19 19 18 18 17 17 16 16 16 16 15 15 15 14 14 14 14 14 14 14 14 14 14 14 14 15 15 15 15 15 15 15 15 15 15 16 16 16
21 20 20 20 19 19 19 18 18 17 17 17 16 16 16 16 15 15 15 14 14 14 14 14 14 14 14 14 14 14 14 14 14 15 15 15 15 15 15 15 15 16 16
Wind_Speed
10 12 12 12 11 10 10 10 10 10 10 9 9 9 9 9 8 8 8 8 8 8 8 8 8 8 8 8 8 8 7 7 7 6 5 4 4 5 7 8 9 8 9
13 14 13 12 11 11 10 10 10 9 9 9 9 8 8 8 7 7 7 7 7 7 7 7 7 7 7 7 7 7 7 7 6 6 5 4 2 4 6 8 9 7 9
14 15 13 12 12 11 11 10 10 10 9 9 8 8 7 7 6 6 6 6 6 6 6 6 6 6 6 6 6 6 6 7 7 8 8 4 2 5 6 7 8 8 8
14 15 14 12 12 11 11 10 10 10 9 8 8 7 7 6 6 5 5 6 6 6 5 5 5 5 5 5 5 5 6 6 8 10 7 2 5 7 7 7 7 8 8
15 16 14 13 12 11 11 11 10 10 9 9 8 8 7 6 6 6 6 5 6 6 5 4 4 4 4 4 4 5 6 7 9 10 6 4 8 7 6 6 6 7 8
15 16 14 13 12 11 11 10 10 9 9 9 8 8 7 6 6 6 5 5 6 6 6 5 4 4 4 5 4 5 6 7 10 7 4 4 8 7 6 6 6 7 7
14 15 14 13 12 11 11 10 10 9 9 8 7 7 6 5 5 5 5 5 6 6 6 6 5 5 5 5 5 5 6 8 9 7 2 4 8 7 6 5 5 6 6
13 14 15 14 13 12 11 10 9 8 7 6 5 4 4 3 2 2 3 4 5 6 6 6 5 5 5 5 5 5 6 8 8 7 3 4 9 7 5 4 5 5 6
9 11 13 14 13 12 11 9 7 6 4 3 2 1 2 3 3 2 0 2 4 5 6 6 6 5 5 6 6 6 7 7 8 8 4 6 9 7 5 4 4 4 5
7 8 8 11 13 13 12 10 8 6 4 3 3 4 6 8 8 7 3 1 2 4 5 5 6 6 6 7 8 8 8 8 10 9 1 7 9 7 5 4 3 3 4
7 6 6 6 7 10 12 11 11 9 7 6 7 8 9 7 4 7 4 4 2 4 5 6 7 8 8 9 11 11 9 8 9 4 4 9 9 7 5 4 3 3 4
6 5 6 6 5 4 4 8 6 7 6 5 2 1 3 4 5 3 3 4 5 7 8 9 10 10 10 9 10 11 8 10 6 2 6 11 9 6 5 4 4 3 4
6 5 5 5 5 4 3 3 2 1 2 1 4 3 3 4 5 3 0 3 5 7 4 4 8 7 5 4 3 5 7 4 1 3 8 10 8 7 5 4 4 4 4
7 6 5 3 4 5 5 1 2 2 2 2 5 7 4 2 2 2 2 3 3 3 2 3 4 4 4 4 3 3 3 2 0 4 8 9 8 6 5 5 5 5 5
7 7 5 4 5 5 4 1 2 3 3 4 5 5 4 2 3 3 2 2 3 5 3 3 3 4 4 4 4 4 3 2 1 2 6 9 8 7 6 5 6 6 6
7 7 6 5 4 3 3 2 4 2 2 4 4 5 5 4 2 3 4 3 3 4 4 3 4 4 3 3 4 4 3 3 1 1 5 8 9 8 7 7 6 6 6
8 8 7 5 4 5 6 5 3 2 5 4 4 7 7 6 4 3 4 4 3 5 5 4 5 4 4 3 3 3 3 2 2 1 2 6 7 8 8 8 7 6 7
7 9 8 5 5 6 6 4 3 4 5 3 5 7 10 10 8 3 4 4 4 4 3 3 3 4 4 4 3 3 2 2 2 1 1 3 5 6 8 8 7 7 7
7 8 8 6 5 6 5 3 3 4 2 2 5 6 9 10 10 5 3 3 5 3 4 5 4 4 4 4 3 2 1 1 2 2 0 2 4 6 7 8 8 8 8
7 6 8 8 6 6 3 2 3 3 2 3 4 5 5 6 7 5 3 4 5 4 4 4 4 4 3 3 4 2 1 0 1 1 1 1 2 4 6 7 7 7 8
6 5 6 8 6 5 2 1 2 2 1 3 3 4 3 4 5 3 3 4 3 3 4 5 4 5 4 3 3 3 2 1 1 1 1 1 1 3 4 6 6 7 7
6 5 6 7 7 7 3 2 2 2 1 3 1 1 2 4 6 6 5 4 3 3 4 5 4 4 4 3 2 2 2 3 2 1 1 1 1 2 2 3 4 5 6
6 4 4 6 7 7 5 3 3 3 1 0 0 1 2 2 3 4 4 4 4 3 3 4 4 5 4 4 2 1 1 1 1 2 2 1 1 1 1 2 3 4 6
5 3 4 6 6 6 5 3 2 1 1 1 1 1 1 2 1 1 3 3 4 3 3 4 4 4 4 4 3 2 1 0 0 1 2 2 2 2 1 1 2 4 5
5 4 3 6 6 6 5 5 1 0 1 1 1 1 1 1 1 1 1 3 3 2 3 3 3 4 3 3 3 3 3 2 1 1 0 1 2 1 1 1 2 3 6
6 5 4 4 5 5 4 4 4 2 1 1 1 1 1 1 1 1 0 2 2 2 3 3 2 2 2 2 2 2 2 2 2 1 0 1 1 1 1 1 2 3 5
Wind_Direction
103 103 102 97 95 93 91 89 84 80 77 74 70 65 62 59 56 52 48 45 43 41 39 39 36 33 31 31 31 28 28 26 22 17 19 24 41 46 40 30 27 33 36
108 104 100 97 94 91 90 89 84 79 76 73 71 67 62 56 52 48 45 43 40 37 35 35 33 30 28 24 22 20 17 13 1 350 340 334 36 64 48 36 36 36 35
110 110 101 95 93 90 88 85 80 76 73 71 68 65 60 54 49 44 39 35 31 28 28 28 26 20 20 20 14 9 6 356 341 330 315 291 114 83 59 43 38 37 35
105 101 97 95 90 87 85 82 80 76 73 70 66 60 56 50 42 35 30 25 21 18 16 17 16 11 7 8 4 358 353 342 328 322 317 63 80 82 63 47 38 37 36
100 97 97 94 90 86 83 81 79 75 71 68 63 58 54 46 40 34 28 19 10 4 2 0 359 356 349 349 351 350 341 329 322 310 322 59 86 85 66 51 41 38 38
105 104 103 99 94 88 84 81 79 75 70 66 61 55 50 44 39 31 21 12 3 356 350 345 336 330 326 326 330 331 328 320 313 307 336 70 97 89 72 56 45 45 44
111 113 113 107 101 94 89 83 79 75 70 65 58 50 41 36 32 24 14 7 360 354 350 345 333 318 309 309 312 315 314 311 294 294 320 93 106 97 81 62 53 55 52
115 118 123 122 117 109 100 91 84 77 72 65 53 39 23 11 4 3 8 8 2 355 348 338 329 314 298 296 296 300 300 300 311 321 322 116 114 104 90 72 63 61 61
118 128 136 141 135 127 119 111 103 95 89 83 68 347 301 281 268 265 320 19 2 351 343 335 323 312 299 286 279 277 280 287 294 286 292 117 119 109 98 87 74 70 70
112 118 132 143 143 147 142 141 145 151 163 187 219 253 268 268 249 239 221 140 336 325 319 316 310 298 289 276 266 260 263 275 266 265 199 122 121 114 105 98 91 90 88
118 127 130 130 135 151 154 154 174 181 196 212 221 241 264 274 244 218 151 156 245 278 280 281 283 282 277 265 252 248 253 253 256 240 123 124 121 118 117 113 108 113 106
141 136 129 126 133 125 107 144 178 172 181 205 172 234 302 346 334 341 134 207 239 257 265 262 270 274 265 251 241 230 242 244 254 212 133 129 124 121 121 123 123 132 127
120 104 105 115 121 117 108 103 87 103 144 88 41 15 358 354 338 357 213 207 240 255 272 286 258 260 256 252 240 219 238 256 265 101 122 129 130 129 132 137 137 146 141
107 97 72 58 94 84 74 68 185 95 56 64 31 13 24 6 335 7 339 25 334 340 352 322 299 305 320 306 279 271 271 263 155 124 134 139 141 146 154 154 152 156 152
122 120 95 60 59 83 95 278 71 79 37 68 50 350 20 8 353 3 337 13 352 358 351 331 315 334 335 326 328 325 335 343 23 111 137 152 156 163 166 162 160 160 159
138 125 116 102 85 94 111 62 61 63 130 65 51 349 20 25 2 9 358 360 11 352 345 331 327 340 320 314 321 322 321 328 347 145 156 164 171 172 171 169 167 162 166
132 119 109 102 90 69 60 39 61 30 51 48 45 5 18 27 11 32 9 357 356 348 348 350 342 335 322 321 315 313 317 324 324 291 167 159 164 175 176 173 168 165 166
130 123 121 108 95 82 73 49 35 53 44 32 41 26 14 16 12 33 13 348 347 354 354 337 350 343 336 336 331 321 332 327 311 282 214 157 159 162 169 175 172 171 167
118 121 128 114 102 93 93 121 68 67 68 35 50 49 20 1 0 22 359 331 355 2 357 344 8 343 332 334 309 284 298 304 318 300 216 144 143 147 154 170 173 176 173
116 124 120 114 106 102 90 92 89 69 39 56 56 59 24 350 1 5 338 8 8 359 352 353 357 339 323 310 319 344 332 325 354 357 15 83 135 145 147 154 159 175 178
130 134 131 130 125 113 100 77 79 73 38 70 66 71 354 356 360 356 359 359 360 354 358 359 352 342 332 335 347 340 329 317 134 77 56 34 91 115 128 146 158 161 164
144 167 148 131 127 123 116 97 115 95 43 81 37 126 35 28 14 2 6 353 3 357 9 354 352 350 339 351 356 347 350 1 10 50 77 89 95 114 116 136 144 145 147
144 168 141 128 127 120 123 85 61 66 337 62 207 103 70 49 31 4 347 347 348 9 16 352 1 357 340 336 14 31 11 344 335 2 34 58 86 94 118 109 131 138 141
142 147 136 125 121 121 122 112 118 127 4 28 31 117 184 160 110 29 335 340 345 5 6 359 21 349 351 342 342 351 331 272 341 357 2 19 50 77 74 104 124 120 128
116 110 95 112 118 124 131 138 168 243 321 20 18 47 308 136 142 152 356 327 333 356 4 9 12 354 353 353 341 335 344 350 2 101 17 13 19 18 79 87 106 110 119
95 93 87 103 115 127 146 162 185 207 235 248 261 290 298 254 206 153 139 313 327 360 8 4 350 336 340 338 336 342 359 355 348 15 42 60 48 336 53 76 109 113 110
Height
1511 1511 1512 1513 1513 1514 1515 1516 1517 1518 1519 1519 1520 1521 1521 1522 1522 1522 1523 1523 1523 1523 1524 1524 1524 1524 1524 1524 1524 1524 1524 1524 1524 1524 1525 1525 1525 1525 1524 1524 1523 1522 1521
1512 1512 1513 1514 1515 1516 1516 1517 1518 1519 1519 1520 1520 1521 1521 1522 1522 1523 1523 1523 1523 1523 1524 1524 1524 1524 1524 1524 1524 1525 1525 1525 1525 1525 1525 1525 1525 1525 1525 1524 1523 1522 1522
1513 1513 1514 1515 1516 1517 1517 1518 1518 1519 1520 1520 1521 1521 1521 1522 1522 1522 1523 1523 1523 1523 1523 1523 1524 1524 1524 1524 1524 1525 1525 1525 1525 1526 1526 1526 1526 1526 1525 1525 1524 1523 1522
1515 1515 1515 1516 1517 1517 1518 1518 1519 1520 1520 1520 1521 1521 1521 1521 1522 1522 1522 1522 1522 1523 1523 1523 1523 1523 1524 1524 1524 1524 1525 1525 1526 1526 1526 1527 1527 1526 1526 1525 1525 1524 1523
1516 1516 1517 1517 1518 1518 1518 1519 1519 1520 1520 1520 1521 1521 1521 1521 1521 1521 1521 1522 1522 1522 1522 1522 1522 1523 1523 1523 1523 1524 1525 1525 1526 1526 1527 1527 1527 1526 1526 1526 1525 1525 1524
1517 1517 1518 1518 1519 1519 1519 1519 1520 1520 1520 1520 1520 1521 1521 1521 1521 1520 1521 1521 1521 1521 1521 1521 1521 1522 1522 1522 1523 1523 1524 1525 1525 1526 1527 1527 1526 1526 1526 1526 1526 1525 1525
1518 1519 1519 1519 1520 1520 1520 1520 1520 1520 1520 1520 1520 1520 1520 1520 1520 1520 1520 1520 1520 1520 1520 1520 1520 1520 1520 1521 1521 1522 1523 1524 1525 1525 1526 1526 1526 1527 1526 1526 1526 1526 1526
1520 1520 1521 1521 1521 1521 1521 1521 1521 1521 1521 1521 1521 1521 1520 1520 1520 1520 1519 1519 1519 1519 1519 1518 1518 1519 1519 1519 1520 1521 1522 1523 1524 1525 1526 1526 1526 1526 1526 1526 1526 1526 1526
1522 1522 1522 1522 1522 1522 1522 1522 1522 1522 1522 1521 1521 1521 1521 1520 1520 1520 1519 1519 1518 1518 1517 1517 1517 1517 1518 1518 1519 1520 1520 1522 1523 1524 1525 1525 1525 1526 1526 1526 1526 1527 1527
1524 1524 1524 1524 1523 1523 1523 1523 1523 1523 1523 1522 1522 1522 1521 1520 1520 1520 1519 1519 1518 1517 1516 1516 1516 1516 1517 1517 1518 1518 1519 1520 1522 1523 1524 1524 1525 1525 1526 1526 1526 1527 1527
1525 1525 1526 1526 1526 1525 1524 1524 1524 1523 1523 1523 1522 1522 1521 1521 1521 1521 1520 1519 1518 1517 1516 1516 1515 1515 1516 1516 1517 1517 1518 1519 1520 1521 1523 1523 1524 1525 1525 1525 1526 1527 1528
1525 1526 1527 1527 1527 1528 1528 1526 1525 1525 1524 1524 1523 1523 1522 1522 1522 1522 1520 1519 1518 1517 1516 1515 1515 1515 1515 1515 1516 1517 1517 1518 1519 1520 1521 1522 1523 1524 1524 1525 1526 1527 1528
1526 1527 1528 1528 1528 1528 1528 1528 1527 1527 1526 1525 1525 1524 1523 1522 1521 1521 1520 1519 1518 1517 1517 1516 1515 1515 1515 1515 1516 1516 1517 1518 1519 1520 1520 1521 1522 1523 1524 1524 1525 1527 1528
1527 1528 1529 1529 1529 1529 1528 1528 1528 1527 1527 1526 1525 1524 1523 1522 1521 1521 1520 1519 1519 1518 1517 1516 1515 1515 1515 1515 1515 1515 1516 1517 1517 1518 1519 1520 1521 1522 1523 1524 1525 1526 1527
1527 1528 1529 1530 1530 1529 1529 1528 1529 1528 1527 1526 1525 1524 1524 1522 1522 1521 1520 1519 1518 1517 1516 1515 1515 1514 1514 1514 1514 1514 1515 1515 1516 1517 1518 1519 1520 1521 1522 1523 1524 1526 1527
1527 1528 1529 1530 1530 1530 1529 1529 1529 1528 1528 1526 1525 1525 1524 1523 1522 1521 1520 1519 1518 1517 1516 1515 1514 1514 1513 1513 1513 1513 1513 1514 1514 1515 1516 1518 1518 1520 1521 1522 1523 1525 1526
1527 1528 1529 1530 1530 1530 1530 1529 1529 1529 1528 1527 1526 1525 1524 1523 1522 1520 1519 1519 1518 1517 1516 1515 1514 1513 1513 1512 1512 1512 1512 1513 1513 1514 1515 1516 1517 1518 1520 1521 1523 1524 1526
1527 1527 1529 1530 1530 1530 1530 1529 1529 1529 1528 1527 1526 1525 1524 1523 1522 1520 1519 1518 1517 1516 1515 1515 1513 1512 1512 1512 1511 1511 1511 1511 1512 1513 1514 1515 1516 1517 1519 1520 1521 1523 1525
1527 1528 1528 1529 1530 1530 1530 1529 1529 1529 1528 1527 1526 1524 1523 1522 1522 1521 1519 1518 1517 1516 1515 1514 1513 1512 1511 1511 1510 1510 1511 1511 1511 1512 1513 1514 1515 1516 1517 1519 1520 1522 1524
1526 1528 1528 1529 1530 1530 1530 1530 1529 1529 1528 1527 1526 1524 1523 1522 1522 1521 1520 1518 1517 1516 1515 1514 1513 1512 1511 1510 1510 1510 1510 1510 1510 1511 1512 1513 1514 1515 1517 1518 1519 1521 1523
1526 1527 1528 1529 1529 1529 1529 1530 1529 1529 1528 1527 1526 1525 1523 1523 1522 1521 1520 1518 1517 1516 1515 1514 1512 1511 1511 1510 1510 1509 1509 1509 1509 1510 1511 1512 1513 1515 1516 1517 1518 1520 1522
1525 1527 1528 1528 1529 1529 1529 1530 1529 1529 1528 1527 1526 1525 1524 1523 1522 1521 1520 1519 1518 1516 1515 1514 1513 1512 1511 1510 1510 1509 1509 1510 1510 1510 1511 1512 1513 1514 1515 1516 1517 1519 1521
1524 1526 1527 1528 1528 1529 1529 1529 1529 1529 1528 1527 1526 1525 1524 1523 1522 1520 1520 1519 1518 1517 1516 1514 1513 1512 1511 1511 1511 1511 1510 1510 1510 1511 1511 1511 1512 1513 1514 1515 1516 1518 1520
1524 1525 1527 1527 1528 1528 1528 1529 1529 1528 1528 1528 1527 1526 1525 1523 1522 1521 1520 1519 1518 1517 1516 1515 1514 1513 1512 1511 1511 1511 1511 1511 1511 1511 1511 1511 1512 1512 1513 1514 1515 1517 1519
1523 1525 1526 1527 1527 1527 1528 1528 1528 1528 1528 1528 1527 1526 1525 1524 1522 1521 1520 1519 1518 1517 1516 1515 1514 1513 1512 1512 1511 1511 1511 1511 1511 1511 1511 1511 1512 1512 1513 1514 1515 1516 1518
1522 1524 1525 1526 1526 1527 1527 1527 1528 1528 1527 1527 1526 1526 1525 1524 1523 1522 1520 1519 1519 1518 1517 1515 1514 1513 1512 1512 1511 1511 1511 1511 1510 1511 1511 1511 1511 1512 1513 1513 1514 1516 1517